sat.trackr.live / text

‹ back to catalog

NAPA-1

NORAD 46320 · 2020-061BA

PAYLOAD ACTIVE UNKNOWN

§ Identity

Operator
Country
THAI
Launch date
2020-09-03
Launch site
FRGUI
Launch vehicle
Mass (kg)
RCS (m²)

External: N2YO · Heavens-Above · Gunter

§ Orbital elements

Epoch: 2026-09-08T23:47:34.889856Z

Period
90.98 min
Inclination
97.2356°
Eccentricity
0.0001737
Mean motion
15.82731356 rev/d
Perigee alt
321.6 km
Apogee alt
323.9 km
Semi-major
6,700.9 km
B*
7.5964e-4
RAAN
329.6949°
Arg perigee
204.5089°
Mean anomaly
155.6098°
Rev number
33,492

§ Raw data

NAPA-11 46320U 20061BA  26251.99137604  .00161760  00000+0  75964-3 0  99932 46320  97.2356 329.6949 0001737 204.5089 155.6098 15.82731356334923

JSON: /api/v1/satellites/46320 · /tle

For live sub-satellite position, see the globe view (requires WebGL).

§ Visibility from observer

Set your observer location to see the next 7 days of passes ≥ 10°. The values pass through the URL so the page stays shareable.

No JS? Fill the form by hand. The geolocation button needs JavaScript.

§ Radio — SatNOGS DB

ModeDescriptionDownlinkUplink
BPSK Downlink 401.125 MHz

1 transmitter · refreshed weekly from db.satnogs.org